Torna al catalogo

YAMAL 201

AttivoComunicazioniGEO
NORAD 28094·PAYLOAD·🇷🇺 Russia

Lanciato Nov 24, 2003 da Baikonur Cosmodrome

Loading…

TLE

AggiornatoSource: Space-Track

Epoca: Sep 14, 2026, 21:04 UTC

1 28094U 03053B   26257.87797388 -.00000239  00000-0  00000-0 0  9998
2 28094   9.8132  54.5786 0006965 137.1587 207.6778  1.00293609 85775

Traccia YAMAL 201 in tempo reale con AllMySat

Download on the App Store